GFSFLT1_sfc_thetae_132.txt.gz
Theta_e
312 309 306 309 317 319 323 323 322 323 337 335 327 341 346 347 355 355 357 359 362 364 365 366 366 364 363 363 363 363 363 363
307 307 312 314 317 321 321 322 323 326 329 336 339 344 348 348 354 352 353 359 362 364 364 365 365 364 363 363 363 363 363 362
308 310 314 318 322 323 320 321 320 324 331 332 344 347 347 349 351 350 352 359 359 363 364 364 365 365 364 363 362 363 363 362
304 310 315 318 322 322 320 321 320 321 330 337 345 344 346 348 349 350 358 356 357 362 363 363 363 364 363 362 362 362 362 361
308 309 313 318 323 320 320 320 320 324 324 339 341 346 346 347 350 354 357 354 355 355 360 362 362 362 362 361 361 361 360 360
308 309 310 319 321 322 320 320 322 326 329 334 343 347 347 346 348 350 353 352 351 353 353 355 358 361 361 361 361 360 360 359
306 309 312 319 316 321 324 318 319 324 341 346 350 347 345 344 345 347 350 351 350 347 349 349 350 356 359 359 358 359 358 359
312 313 313 317 316 317 317 316 316 319 336 347 346 345 342 341 341 343 347 348 349 348 348 347 346 353 352 350 351 352 350 354
313 312 316 315 312 317 313 313 317 319 326 331 343 343 342 342 342 343 347 348 348 352 352 348 347 351 348 349 350 350 351 352
313 312 311 309 312 313 315 315 319 319 321 325 333 336 339 339 341 343 345 348 349 355 355 357 352 354 349 349 349 349 349 355
313 313 313 314 311 312 314 318 320 319 319 318 324 332 341 344 342 343 345 348 350 356 359 362 372 354 352 351 351 352 352 353
314 314 315 312 313 315 316 319 317 319 318 318 320 331 335 344 345 342 345 349 354 356 363 363 366 373 364 365 359 357 355 354
314 315 313 316 310 311 316 317 315 317 317 319 320 324 335 340 340 343 345 344 353 360 364 364 365 369 368 362 358 362 358 365
311 313 314 313 305 313 317 316 315 316 317 318 321 322 327 340 338 336 334 344 355 353 362 366 367 366 366 363 367 361 363 360
306 313 312 311 306 312 317 317 316 315 314 317 320 323 328 330 336 334 332 342 355 356 358 365 368 366 366 368 366 365 363 363
305 309 311 306 305 311 317 316 313 314 314 317 318 321 327 330 331 337 341 347 346 357 356 366 365 365 363 361 361 363 360 359
307 308 305 304 306 309 315 314 312 313 312 316 318 321 327 329 332 333 338 340 348 351 358 362 358 356 356 354 358 357 359 365
304 308 303 302 301 305 307 309 314 312 313 314 316 318 326 329 333 336 338 342 347 349 355 363 360 359 359 355 352 354 355 359
299 303 304 302 299 302 305 307 314 315 314 316 318 318 325 328 333 335 337 339 343 350 354 356 362 362 364 362 361 358 357 360
301 299 293 302 291 300 304 304 310 312 313 315 317 321 326 333 334 338 337 340 340 342 352 349 361 357 362 353 347 353 351 355

GFSFLT1_sfc_thetae_135.txt.gz
Theta_e
301 298 297 300 308 313 318 319 320 331 333 330 330 342 343 350 354 354 353 356 362 365 365 365 364 362 361 361 361 361 361 362
298 296 304 307 311 315 317 319 319 332 325 329 338 342 348 350 354 351 353 358 363 364 364 364 364 362 361 361 362 361 362 361
296 300 306 311 314 316 315 319 317 326 324 327 333 346 350 351 353 350 354 357 361 363 363 364 364 362 362 362 361 361 362 362
294 301 309 312 315 316 317 318 318 329 326 328 340 343 348 350 350 352 354 356 358 363 363 362 363 362 361 361 360 360 360 360
297 301 305 311 316 315 314 317 315 325 329 332 337 341 346 347 350 354 352 353 355 358 361 362 362 361 360 360 359 360 359 359
299 301 303 312 316 315 316 316 318 327 329 327 335 341 341 350 352 349 349 350 350 353 357 358 359 362 361 360 360 359 359 359
298 301 306 312 312 314 317 314 315 341 340 339 339 345 340 347 347 346 347 346 346 348 348 351 354 359 360 361 360 359 359 359
305 307 306 312 310 309 312 312 313 334 335 337 338 345 341 337 342 343 343 344 344 343 344 343 352 352 351 355 354 353 352 352
306 311 309 312 308 312 310 309 312 324 331 331 332 335 331 335 340 343 344 344 343 341 341 340 344 347 344 344 344 345 345 347
306 307 307 307 309 309 311 311 317 317 332 330 330 330 330 336 339 341 343 343 343 342 342 341 346 343 343 343 343 342 342 344
308 306 305 312 310 310 310 316 319 319 317 323 329 332 339 339 341 345 342 341 343 343 342 346 344 342 342 343 343 343 343 346
308 306 308 308 310 312 313 317 317 317 314 314 325 330 337 337 340 338 338 335 336 347 349 351 347 347 342 343 344 344 344 345
306 307 309 311 308 309 314 316 314 315 315 316 316 325 331 337 338 335 337 339 337 339 345 351 352 355 353 346 347 346 347 345
304 309 311 309 301 311 315 312 313 315 316 317 314 314 322 338 336 338 335 336 335 335 340 352 353 354 354 352 350 350 349 349
301 308 308 307 302 310 314 312 311 312 314 315 313 315 316 333 334 334 334 331 331 335 333 344 356 355 355 354 352 354 349 351
300 304 306 304 304 309 311 310 311 313 312 312 312 315 320 322 329 327 327 330 331 335 339 342 358 357 356 354 355 354 352 353
302 307 306 303 303 307 309 309 310 309 309 309 310 317 322 321 321 321 324 326 329 330 340 348 353 351 349 348 350 349 352 351
302 306 305 304 303 305 308 305 309 308 308 308 308 314 317 322 324 325 322 326 327 328 333 339 347 348 348 346 344 349 350 350
299 304 303 300 297 298 301 303 305 310 310 310 310 310 318 321 322 324 325 325 324 326 333 335 339 345 344 345 343 343 345 346
299 297 290 299 285 294 298 299 302 303 308 307 309 314 319 320 323 329 332 335 335 336 337 335 341 341 342 341 336 338 341 343

GFSFLT1_sfc_thetae_138.txt.gz
Theta_e
299 295 293 296 307 308 312 328 329 330 333 330 329 342 343 350 351 352 354 356 359 363 363 363 362 360 360 360 360 360 360 361
296 295 300 303 309 310 311 318 330 331 327 331 338 342 347 352 352 351 352 356 363 363 363 363 362 361 360 360 360 360 361 361
293 297 302 308 312 311 312 316 328 328 323 326 333 349 351 351 351 349 352 357 361 363 363 363 362 361 360 360 359 359 360 361
291 296 304 308 312 312 313 317 320 327 324 325 344 346 350 350 348 352 353 357 360 363 363 362 362 361 360 359 359 360 360 360
293 297 300 306 312 310 309 312 313 328 326 330 338 347 349 348 351 353 354 355 357 359 361 362 361 360 360 359 359 359 359 359
294 296 298 307 311 311 309 312 328 339 326 326 336 341 346 350 350 348 350 353 354 357 359 358 358 361 360 359 359 359 358 358
294 297 300 306 308 312 315 315 326 335 336 338 342 346 346 345 344 345 346 346 348 351 353 355 355 359 360 360 360 359 359 358
300 303 303 306 306 308 310 311 312 332 335 338 341 343 337 336 339 340 341 343 346 346 348 350 356 355 354 355 355 354 353 352
303 307 305 303 306 309 310 307 311 320 330 333 336 334 334 338 339 342 345 342 343 343 344 344 348 351 350 349 350 350 349 348
304 306 305 304 308 308 309 310 316 316 333 331 333 335 332 336 339 340 342 344 343 342 341 338 346 347 344 346 345 345 344 344
305 305 304 309 307 308 309 315 316 316 324 329 329 330 336 339 341 340 338 338 340 341 339 338 342 340 340 342 342 342 340 342
304 303 304 307 308 308 312 315 315 315 315 326 328 331 336 336 339 341 341 337 340 340 338 343 341 338 339 341 341 341 341 341
303 302 302 308 305 308 312 314 313 314 314 315 323 333 334 337 339 341 342 343 342 342 341 335 344 344 340 341 343 341 342 341
301 303 308 307 299 309 313 312 312 313 314 315 312 315 333 338 340 342 341 339 341 345 339 336 335 349 348 344 344 343 343 342
295 304 307 304 300 308 313 312 311 311 312 314 312 316 328 338 337 338 339 337 336 339 333 333 339 342 353 352 348 347 346 346
293 300 303 301 302 307 310 309 308 309 312 313 311 314 331 334 335 335 335 338 337 335 333 337 344 350 352 352 351 352 350 348
298 303 302 300 302 307 310 307 306 307 309 309 310 313 318 328 331 331 330 329 328 330 331 335 339 349 348 349 348 349 352 352
296 305 303 301 301 306 308 307 306 307 308 308 309 312 319 321 321 321 323 327 325 327 330 332 338 347 349 347 348 350 349 348
296 301 302 301 298 301 305 306 305 306 308 308 309 308 318 320 321 324 323 323 324 325 328 330 338 344 342 344 341 340 341 343
298 295 291 299 287 294 299 299 300 301 302 306 308 311 317 322 328 331 332 336 336 336 337 338 339 335 337 337 334 336 338 342

GFSFLT1_sfc_thetae_141.txt.gz
Theta_e
298 293 293 296 305 307 310 320 325 325 331 329 328 342 341 345 350 352 353 355 355 362 361 361 361 360 359 359 359 359 358 359
295 294 298 302 303 308 308 313 320 328 325 332 336 343 346 350 351 351 352 355 360 361 361 361 360 360 359 359 359 359 358 358
292 296 301 306 308 309 307 310 318 327 323 325 343 349 349 348 350 349 350 355 360 362 362 361 361 360 360 359 359 359 359 358
290 294 302 305 308 307 309 311 318 323 322 326 345 346 347 347 346 351 353 357 359 363 362 361 361 360 359 359 358 359 359 359
292 295 300 303 308 308 307 313 316 326 324 330 339 347 347 349 351 352 355 355 357 358 360 362 360 360 359 358 358 358 358 358
293 295 297 303 306 310 309 314 329 337 324 324 336 345 349 349 348 349 352 354 353 356 357 355 356 360 359 359 358 358 358 358
294 296 298 302 302 310 314 314 332 333 334 338 344 347 344 343 344 345 348 349 352 352 353 354 355 356 359 359 358 358 358 358
300 301 300 302 303 306 309 312 315 330 335 341 341 342 340 339 337 339 341 343 345 349 350 352 356 352 353 354 353 352 352 351
302 305 305 302 305 307 307 306 311 322 330 334 335 338 337 339 341 341 342 343 344 344 345 347 349 352 352 352 352 349 349 348
303 304 304 302 306 307 307 308 314 319 333 332 333 333 335 338 339 342 342 341 341 341 341 341 345 349 348 348 348 348 346 346
303 304 304 305 304 306 307 313 314 325 331 331 329 331 337 340 341 340 340 341 339 339 338 338 340 343 342 344 345 346 344 343
302 302 302 303 304 309 310 313 313 315 320 323 326 329 335 337 337 338 339 340 340 339 337 339 340 340 339 341 343 341 340 341
299 301 300 305 302 305 311 312 311 311 312 319 324 328 331 333 337 337 337 339 340 341 340 334 337 343 341 339 340 340 340 340
299 301 302 304 294 305 311 311 311 311 311 314 314 326 330 335 337 339 338 339 341 345 342 338 332 340 345 342 339 340 340 341
293 299 303 301 297 305 311 311 310 311 311 311 310 314 319 336 339 339 339 337 336 337 338 336 332 335 343 345 340 341 342 342
292 296 299 298 301 306 309 309 308 309 310 310 310 319 328 336 338 339 337 336 334 336 337 332 336 344 344 348 349 346 343 343
293 297 301 300 301 305 308 308 306 306 308 310 309 317 333 335 335 336 333 334 334 332 334 330 332 335 345 347 348 348 349 347
293 302 300 298 300 305 308 307 307 307 306 308 308 313 319 327 331 331 331 330 329 329 331 330 329 332 341 346 346 346 346 346
292 299 300 300 297 300 306 306 306 306 306 307 308 311 315 317 322 323 325 327 327 325 326 326 328 337 341 341 340 338 338 340
293 293 287 298 286 293 301 303 303 304 303 305 307 307 316 319 321 322 324 325 326 328 331 335 336 332 334 333 331 332 332 335

GFSFLT1_sfc_thetae_144.txt.gz
Theta_e
297 292 293 297 303 303 308 311 317 323 330 327 327 341 339 344 349 352 351 353 358 362 362 361 360 359 359 358 358 358 358 359
295 292 298 300 305 305 307 311 313 326 322 330 340 343 344 349 351 351 350 353 360 361 361 361 360 359 359 359 359 359 358 357
291 294 298 304 307 307 306 308 312 326 322 325 344 347 348 349 351 350 351 356 357 361 361 361 360 359 359 359 359 359 358 357
291 294 301 304 305 306 306 309 315 323 322 331 346 344 345 349 349 352 354 357 358 361 361 360 360 359 358 358 358 359 358 358
292 296 299 302 306 306 306 312 318 328 323 331 340 344 348 349 352 354 355 357 357 357 359 360 359 359 358 357 357 358 358 358
292 295 297 302 303 306 308 314 329 336 324 324 338 347 348 349 350 352 352 352 352 355 355 354 355 359 359 357 357 357 357 357
294 296 298 299 300 308 314 325 330 333 333 337 345 345 344 343 344 346 349 350 351 352 352 354 354 356 358 358 358 357 357 357
299 300 299 299 302 304 311 319 327 332 340 343 343 342 339 339 339 341 341 345 348 350 348 350 355 354 353 354 354 353 353 352
301 303 303 300 302 306 306 307 317 328 333 338 339 338 337 338 339 339 342 345 346 347 348 350 352 351 352 353 353 351 351 350
302 304 303 300 305 305 305 307 321 332 335 335 336 336 337 338 339 340 342 344 345 346 346 346 349 349 349 350 350 349 349 348
303 302 303 304 301 305 306 311 319 332 332 332 332 333 337 339 341 341 340 342 342 343 344 344 346 348 348 348 348 348 347 347
300 301 302 302 302 306 308 312 313 329 329 329 331 333 334 337 338 339 340 339 340 340 341 342 341 343 344 346 346 347 346 346
298 299 299 303 300 303 310 311 310 311 314 320 324 330 333 335 336 338 339 341 339 339 340 338 338 340 341 341 343 343 344 343
298 299 300 301 295 304 310 309 308 310 311 315 316 323 329 333 335 337 337 338 339 342 338 335 333 337 343 341 340 340 340 341
293 298 300 298 294 302 310 309 308 308 310 311 311 311 316 333 335 337 336 338 338 340 338 334 337 338 338 344 340 340 341 342
291 294 297 298 299 305 308 309 309 309 310 309 309 311 321 333 337 337 337 336 335 335 337 332 334 338 343 347 348 344 342 343
291 296 296 297 299 304 306 305 305 306 307 309 309 310 330 334 336 336 336 334 334 333 332 332 332 333 340 345 347 347 348 347
291 297 297 297 298 304 306 305 305 306 306 307 308 310 325 330 331 332 333 332 332 332 331 331 330 331 334 339 344 346 347 347
289 296 299 296 294 299 304 306 306 306 306 307 307 310 317 323 326 328 329 329 329 328 327 328 328 330 336 341 340 337 337 337
292 290 286 296 284 293 300 303 305 305 303 305 307 310 315 318 319 321 323 325 327 328 330 331 336 334 334 330 328 328 328 328

GFSFLT1_sfc_thetae_147.txt.gz
Theta_e
310 307 304 305 310 313 315 317 316 326 332 330 332 342 342 350 354 357 357 358 360 362 361 361 360 359 358 358 359 359 359 359
306 306 308 308 312 313 314 317 318 328 327 337 348 346 349 353 354 354 354 355 361 361 360 361 360 359 358 358 358 359 359 359
304 306 307 310 312 314 313 314 317 330 326 335 346 351 352 352 352 351 352 355 358 361 360 361 360 359 358 358 357 358 358 358
302 305 309 310 314 314 314 315 322 326 329 337 348 349 351 352 351 351 352 355 358 360 360 360 360 359 358 358 358 358 358 358
304 306 308 310 314 313 313 315 324 332 327 338 342 348 352 352 353 353 354 355 357 356 359 360 359 358 357 357 357 357 357 358
303 304 308 310 310 312 315 318 337 338 328 332 343 350 351 353 352 352 353 355 357 358 356 356 356 358 357 357 357 357 357 357
302 303 309 309 310 315 323 329 334 336 336 341 348 349 349 347 349 350 352 355 356 356 358 357 356 356 357 356 357 357 357 357
305 306 306 308 311 314 318 330 332 336 343 346 347 346 343 343 342 345 348 351 354 355 356 356 355 357 357 354 354 354 353 356
304 306 307 308 310 313 317 323 331 334 340 343 343 343 342 342 344 345 348 349 352 356 357 355 355 357 356 356 356 356 356 357
305 306 307 307 311 311 313 315 327 341 344 343 341 341 340 340 344 345 346 349 351 353 354 355 356 356 356 355 356 355 355 357
307 307 306 308 308 312 313 320 339 341 341 340 340 341 343 345 345 347 347 349 351 352 352 355 357 355 355 355 355 355 355 356
306 307 306 306 307 312 314 329 336 337 338 340 340 341 342 344 345 347 349 349 351 351 353 353 354 356 354 355 354 354 353 354
304 305 306 307 305 309 316 329 333 336 338 339 342 343 343 345 347 349 348 351 350 350 351 351 351 351 351 352 351 352 352 355
304 305 305 306 303 309 316 317 325 329 330 332 336 341 343 344 347 350 351 349 350 347 347 348 347 347 347 348 349 349 350 351
299 305 305 305 302 308 314 316 315 317 318 321 324 331 338 342 344 346 348 349 348 348 346 345 346 346 348 354 352 352 353 351
297 301 304 302 303 308 313 314 314 316 318 318 319 321 324 328 339 343 346 346 347 347 347 346 345 348 349 353 356 356 353 352
298 302 302 302 304 309 311 312 313 315 316 318 319 322 327 336 339 342 344 345 345 346 348 346 345 344 346 345 347 347 354 358
298 302 302 303 303 308 311 313 315 315 315 317 319 321 325 337 340 342 343 344 344 344 344 344 343 344 344 346 347 350 348 345
295 300 302 302 299 303 309 312 314 315 317 318 319 320 322 331 338 340 342 342 342 343 342 342 342 341 343 349 345 338 335 332
294 296 292 302 291 299 305 308 311 314 315 317 319 320 322 327 333 337 338 339 340 341 344 346 348 347 347 342 333 330 328 328

GFSFLT1_sfc_thetae_150.txt.gz
Theta_e
316 312 309 311 316 321 320 322 324 328 333 333 337 341 340 349 354 357 355 354 357 362 361 361 361 361 360 360 360 360 360 361
311 310 314 314 318 320 319 322 325 331 330 344 350 345 348 351 354 355 352 353 360 361 361 360 360 359 359 359 359 360 360 360
310 311 316 317 320 319 318 321 325 331 329 338 350 354 350 352 354 352 351 353 357 361 361 360 360 359 358 358 358 359 359 359
307 310 316 318 320 319 320 321 325 330 334 340 353 351 348 352 352 351 351 353 355 360 360 360 360 358 357 357 357 358 358 358
311 311 313 317 321 318 320 320 327 334 333 342 349 353 350 351 351 350 352 352 353 353 359 360 359 358 357 356 356 357 358 358
311 311 311 319 319 320 319 320 338 340 332 337 348 353 351 351 350 350 351 352 352 353 352 353 355 359 358 358 357 357 357 358
310 311 314 320 317 321 324 323 335 339 340 347 352 352 349 348 348 348 348 352 352 352 353 352 351 354 357 357 357 358 357 358
313 316 314 319 318 320 320 324 333 338 347 351 351 349 345 346 344 345 346 350 353 353 355 354 352 355 353 352 352 353 354 357
312 313 314 317 316 321 319 321 331 336 343 348 349 347 346 347 344 344 349 350 353 357 360 357 354 357 355 355 354 355 357 359
312 312 311 314 319 316 319 323 333 340 347 348 348 347 347 346 343 344 347 350 354 358 360 360 355 355 355 354 356 357 357 360
312 312 313 314 315 317 319 323 337 345 347 346 347 348 348 347 346 347 347 350 353 357 360 360 360 356 355 356 356 357 359 360
312 311 312 311 314 317 319 334 341 344 345 345 345 345 345 345 346 348 350 351 355 356 359 358 359 359 358 359 358 359 358 358
309 311 311 313 309 312 322 338 340 342 344 344 345 346 345 346 347 349 350 354 357 357 358 358 357 359 357 356 355 354 353 358
307 310 311 311 305 314 324 337 337 340 342 342 344 345 347 347 348 351 352 354 357 354 355 356 355 353 352 351 351 350 350 353
302 309 309 309 309 314 320 333 335 338 340 340 342 341 343 346 350 355 357 357 356 356 353 354 354 352 352 355 352 351 356 357
300 305 308 306 308 313 317 321 327 332 333 334 329 330 335 338 343 351 354 357 357 355 356 355 352 353 351 353 355 358 359 360
302 307 305 305 307 311 316 317 319 321 322 322 322 326 330 333 335 343 351 353 354 354 355 353 349 346 347 347 351 352 357 358
302 305 305 305 306 311 315 315 316 318 319 321 323 325 328 339 342 345 347 350 352 353 355 354 352 352 353 352 351 351 353 353
298 303 305 305 303 307 312 317 318 320 319 321 322 323 326 334 342 346 348 350 351 352 352 352 352 350 349 353 348 345 343 341
300 299 295 305 295 305 309 312 315 318 320 321 323 324 325 328 339 344 347 350 351 352 352 351 352 349 352 348 340 339 336 335